Fryeburg, ME

10:40 PM EST on February 22, 2017 (GMT -0500)
Eastern Slopes Regional

Weather History for KIZG - June, 2012

Change the Weather History Date:

Tuesday, June 5, 2012

  Actual Average Record
Temperature  
Mean Temperature 56 °F -  
Max Temperature 64 °F 71 °F 80 °F (2007)
Min Temperature 48 °F 44 °F 33 °F (1997)
Degree Days  
Heating Degree Days 10    
Growing Degree Days 6 (Base 50)    
Moisture  
Dew Point 47 °F    
Average Humidity 82    
Maximum Humidity 100    
Minimum Humidity 58    
Precipitation  
Precipitation 0.01 in - - ()
Sea Level Pressure  
Sea Level Pressure 29.88 in    
Wind  
Wind Speed 2 mph (NNE)    
Max Wind Speed 8 mph    
Max Gust Speed -    
Visibility 10 miles    
Events Rain    
Averages and records for this station are not official NWS values.
T = Trace of Precipitation, MM = Missing Value Source: NWS Daily Summary

Daily Weather History Graph

Daily Weather History Graph

Search for Another Location

Airport or City:

Trip Planner

Search our weather history database for the weather conditions in past years. The results will help you decide how hot, cold, wet, or windy it might be!

Date:

Astronomy

Jun. 05, 2012 Rise Set
Actual Time 5:02 AM EDT 8:23 PM EDT
Civil Twilight 4:26 AM EDT 8:58 PM EDT
Nautical Twilight 3:39 AM EDT 9:45 PM EDT
Astronomical Twilight 2:41 AM EDT 10:43 PM EDT
Moon 9:43 PM EDT (6/5) 6:11 AM EDT (6/5)
Length of Visible Light 16h 32m
Length of Day
15h 21m
Full, 98% of the Moon is Illuminated
Jun 5
Full
Jun 11
Last Quarter
Jun 19
New
Jun 26
First Quarter
Jul 3
Full

Hourly Weather History & Observations

Time (EDT) Temp. Dew Point Humidity Pressure Visibility Wind Dir Wind Speed Gust Speed Precip Events Conditions
12:16 AM 50.0 °F 48.2 °F 94% 29.83 in 10.0 mi Calm Calm - 0.00 in   Overcast
12:54 AM 48.9 °F 46.9 °F 93% 29.84 in 10.0 mi NNW 3.5 mph - 0.01 in   Overcast
1:54 AM 48.9 °F 48.0 °F 97% 29.83 in 10.0 mi Calm Calm - N/A   Overcast
2:54 AM 48.9 °F 48.0 °F 97% 29.82 in 10.0 mi Calm Calm - N/A   Overcast
3:54 AM 48.9 °F 48.0 °F 97% 29.82 in 10.0 mi Calm Calm - N/A   Overcast
4:33 AM 48.2 °F 48.2 °F 100% 29.82 in 10.0 mi Calm Calm - N/A   Overcast
4:49 AM 50.0 °F 46.4 °F 87% 29.83 in 10.0 mi Variable 3.5 mph - 0.00 in Rain Light Rain
4:54 AM 50.0 °F 48.0 °F 93% 29.84 in 10.0 mi Calm Calm - 0.00 in Rain Light Rain
5:54 AM 48.9 °F 46.0 °F 90% 29.85 in 10.0 mi Calm Calm - 0.00 in   Overcast
6:46 AM 50.0 °F 46.4 °F 87% 29.85 in 10.0 mi NNE 3.5 mph - 0.00 in   Overcast
6:54 AM 50.0 °F 46.0 °F 86% 29.86 in 10.0 mi Calm Calm - 0.00 in   Overcast
7:02 AM 50.0 °F 46.4 °F 87% 29.86 in 10.0 mi Calm Calm - N/A   Overcast
7:54 AM 51.1 °F 46.0 °F 83% 29.88 in 10.0 mi North 4.6 mph - N/A   Overcast
9:54 AM 53.1 °F 46.0 °F 77% 29.90 in 10.0 mi NE 3.5 mph - N/A   Overcast
10:31 AM 53.6 °F 46.4 °F 77% 29.89 in 10.0 mi NE 5.8 mph - N/A   Overcast
10:54 AM 55.9 °F 46.0 °F 69% 29.90 in 10.0 mi NE 4.6 mph - N/A   Overcast
11:54 AM 57.9 °F 46.9 °F 67% 29.90 in 10.0 mi NNE 4.6 mph - N/A   Overcast
12:54 PM 57.9 °F 48.0 °F 70% 29.91 in 10.0 mi Variable 4.6 mph - N/A   Overcast
1:54 PM 57.9 °F 46.9 °F 67% 29.90 in 10.0 mi NE 5.8 mph - N/A   Overcast
2:54 PM 57.9 °F 48.9 °F 72% 29.91 in 10.0 mi NE 6.9 mph - 0.00 in   Overcast
3:54 PM 60.1 °F 48.0 °F 64% 29.91 in 10.0 mi NNE 8.1 mph - N/A   Overcast
4:54 PM 61.0 °F 46.9 °F 60% 29.89 in 10.0 mi NE 8.1 mph - N/A   Overcast
5:54 PM 63.0 °F 48.0 °F 58% 29.89 in 10.0 mi ENE 3.5 mph - N/A   Mostly Cloudy
6:54 PM 61.0 °F 48.0 °F 62% 29.89 in 10.0 mi WNW 3.5 mph - 0.00 in   Mostly Cloudy
7:54 PM 55.0 °F 52.0 °F 89% 29.91 in 10.0 mi Calm Calm - 0.00 in   Overcast
8:54 PM 54.0 °F 50.0 °F 86% 29.93 in 10.0 mi SE 4.6 mph - N/A   Mostly Cloudy
9:54 PM 50.0 °F 48.0 °F 93% 29.94 in 10.0 mi Calm Calm - N/A   Partly Cloudy
10:54 PM 48.9 °F 46.9 °F 93% 29.95 in 10.0 mi NW 4.6 mph - N/A   Overcast
11:54 PM 48.9 °F 48.0 °F 97% 29.96 in 10.0 mi Calm Calm - N/A   Overcast